RH
92 96 94 94 93 89 84 83 80 80 65 65 72 73 68 64 66 64 63 65 64 64 65 69 67 70 72 70 63 62 60 68 72 79 76 68 57 58 61 60 56 53 56
95 96 96 94 93 90 81 79 75 76 76 77 74 69 61 65 64 62 63 64 64 64 64 70 70 69 67 72 70 66 68 70 73 78 80 66 62 55 57 60 56 61 57
91 91 98 94 94 94 89 80 78 76 74 70 65 66 57 61 59 60 66 68 67 68 70 72 75 75 72 73 76 70 67 70 69 71 76 76 71 66 64 61 60 63 66
76 82 95 97 86 94 91 84 78 80 69 65 63 58 57 58 64 68 66 65 64 67 68 72 77 79 80 76 73 73 73 68 65 68 57 66 68 68 70 58 62 60 61
70 71 84 93 93 89 86 86 82 81 72 67 63 67 74 72 75 74 72 71 75 75 74 76 80 83 81 82 80 79 78 80 74 73 73 72 72 72 64 64 64 63 69
69 74 77 85 92 86 88 86 84 82 73 70 72 73 72 73 77 75 76 77 78 79 77 76 82 83 83 81 83 82 78 78 76 73 72 74 75 76 76 76 78 78 70
69 76 81 90 89 89 88 84 79 79 74 76 74 72 71 70 72 75 82 85 84 83 80 77 80 82 82 82 82 80 78 81 82 78 81 80 78 76 78 80 85 80 76
68 74 73 79 84 85 85 79 75 73 73 77 74 70 72 70 77 77 83 83 82 84 81 82 82 82 81 82 84 88 86 84 85 79 81 86 83 80 78 79 82 85 86
66 67 66 70 78 84 84 77 71 69 73 73 72 71 76 76 77 77 81 84 84 76 81 80 81 81 80 80 80 84 84 84 84 83 83 86 87 87 86 88 86 85 93
61 59 60 65 75 79 80 74 69 70 74 70 68 68 76 76 78 80 82 83 82 81 79 78 79 78 78 79 81 84 81 83 86 82 84 84 88 87 89 91 89 89 88
57 57 58 60 71 78 76 75 71 72 75 68 70 74 75 74 78 80 83 81 84 81 79 77 78 78 77 75 80 80 77 81 82 83 82 84 83 88 90 91 89 91 90
55 56 57 59 72 80 75 75 72 72 70 68 67 70 74 76 79 80 80 84 82 80 79 76 75 74 73 74 74 73 76 79 81 82 80 76 66 87 89 90 89 90 91
54 54 55 58 73 76 74 73 72 71 69 65 67 73 77 77 79 79 80 78 82 81 78 76 75 74 74 73 74 75 77 79 81 79 76 77 80 85 87 88 88 90 80
51 50 53 60 66 70 72 72 71 70 67 64 65 71 77 75 78 79 77 80 80 80 78 76 74 74 71 69 67 71 78 78 77 81 78 77 81 82 83 82 89 86 92
49 50 53 58 64 69 69 68 70 70 65 64 64 72 75 77 78 78 79 82 80 76 75 77 75 73 66 60 69 69 76 77 77 79 77 80 80 74 78 84 88 90 94
49 48 48 50 62 66 66 66 70 70 65 64 66 70 72 75 77 77 81 82 82 80 80 78 75 73 51 79 77 71 69 67 72 81 83 84 81 76 74 82 89 91 91
47 47 47 49 54 61 61 67 68 67 66 65 66 66 68 72 78 74 78 80 83 85 84 80 77 71 70 83 82 81 72 71 74 79 85 74 67 76 73 84 83 84 81
46 45 45 46 49 54 56 61 64 65 66 64 64 64 68 72 76 74 77 86 87 84 85 83 80 71 63 79 77 80 79 77 73 75 84 82 81 78 75 91 86 83 82
44 44 42 44 49 54 53 59 63 62 63 64 63 62 65 70 74 76 85 82 86 88 85 77 82 72 64 78 75 69 75 77 75 70 81 81 83 78 74 89 84 83 83
41 44 43 44 50 52 52 58 61 61 62 63 61 60 62 66 70 74 84 88 86 82 75 81 83 76 70 82 78 61 75 78 82 84 88 82 81 78 83 86 84 88 87
43 43 44 47 49 51 52 58 60 60 57 59 59 60 60 64 67 77 80 78 83 81 85 80 91 79 76 78 81 76 76 79 85 82 86 87 79 79 83 80 82 84 87
44 45 46 49 50 52 52 56 58 57 55 58 60 62 60 58 66 75 76 77 79 84 87 89 94 90 84 78 84 80 78 81 78 86 88 85 80 80 80 86 82 87 93
43 43 46 51 52 52 50 55 56 55 56 58 61 62 60 59 67 72 80 80 79 80 83 83 90 95 94 91 84 84 84 82 82 90 86 82 81 81 84 83 86 90 95
41 43 49 53 56 52 49 52 54 54 55 57 59 61 63 63 68 65 72 77 82 84 80 85 92 94 97 95 95 92 90 90 88 88 89 88 88 89 93 93 94 92 89
43 47 49 52 53 52 51 52 53 53 54 54 56 61 61 63 69 68 74 73 73 74 78 80 84 91 93 90 86 83 83 87 84 86 87 91 92 91 94 95 94 93 92
51 47 49 50 52 51 52 52 52 51 53 54 56 64 68 68 70 75 91 89 81 82 81 82 82 81 80 87 86 82 80 82 88 88 93 96 96 96 96 96 96 97 94
Wind_Speed
14 13 9 7 9 8 9 7 9 7 8 6 5 4 3 3 4 4 5 5 5 5 5 3 6 4 5 5 4 3 5 5 2 4 5 5 5 6 5 3 4 5 4
16 13 12 7 7 8 8 7 7 7 4 4 4 4 4 3 4 2 4 7 5 4 5 6 5 4 5 6 5 4 3 4 3 4 4 3 4 6 5 4 4 5 3
20 18 15 12 9 7 8 8 7 7 6 7 7 5 6 4 2 3 3 5 5 4 7 7 6 5 4 5 5 5 5 4 4 7 4 3 3 3 0 4 5 6 4
16 14 15 13 13 8 7 7 6 7 6 8 9 11 5 6 2 2 2 5 4 4 7 7 6 5 4 7 6 5 3 5 5 5 7 7 4 3 2 2 4 5 8
17 16 15 15 10 12 10 8 7 7 6 7 8 6 6 4 3 3 6 4 4 5 6 6 6 6 5 7 6 6 7 4 3 4 1 6 5 5 3 2 3 3 4
17 15 13 15 13 13 12 10 10 7 7 7 8 9 11 8 6 4 4 3 2 3 6 6 6 7 6 6 5 6 8 7 6 6 7 4 3 2 4 4 1 2 2
20 19 19 17 16 16 15 12 13 10 8 8 8 9 10 9 8 6 5 5 3 3 4 5 6 5 6 6 6 7 8 6 6 6 5 4 4 3 3 3 1 2 1
20 23 21 19 19 17 16 15 15 13 11 9 9 8 10 7 5 5 4 4 4 4 3 5 6 6 6 7 6 4 5 6 6 8 6 4 4 4 3 3 3 2 2
22 23 22 20 19 19 20 18 16 13 12 11 9 9 8 9 7 7 5 4 5 4 5 6 6 6 7 6 6 5 6 6 5 6 6 5 4 5 4 4 2 3 1
21 21 21 21 19 19 17 18 18 16 14 13 11 9 9 8 8 7 7 7 6 5 6 6 6 7 6 6 7 5 6 7 4 4 7 6 4 5 5 4 4 3 3
23 22 21 20 18 18 18 18 17 16 14 13 11 10 9 9 8 8 7 7 6 7 6 6 6 6 6 6 6 7 7 7 6 6 7 6 6 4 4 4 3 4 3
25 23 22 20 18 19 18 17 17 17 16 14 12 12 10 8 9 8 8 7 7 6 7 6 6 6 6 6 7 6 6 7 7 6 7 6 5 5 4 4 5 4 4
21 19 17 19 19 19 18 16 16 16 16 14 13 11 10 9 10 10 9 9 8 7 6 6 6 6 6 6 6 6 6 6 6 6 6 6 6 5 4 4 4 3 3
22 21 18 19 20 19 19 16 15 16 16 15 13 12 11 11 11 10 10 9 8 7 7 6 6 6 6 6 6 6 6 6 6 6 6 6 6 6 4 3 3 2 3
21 21 20 19 19 18 17 15 15 16 16 15 13 12 11 11 10 11 10 8 8 7 7 7 6 6 6 4 7 6 6 6 5 4 5 5 7 7 4 2 1 0 2
23 22 22 21 21 22 20 17 17 17 16 16 14 12 13 12 11 10 9 9 8 7 7 7 7 7 4 9 9 7 6 6 6 6 6 5 7 5 7 8 9 5 4
22 20 22 23 21 21 21 20 18 16 16 15 14 14 14 13 11 11 10 9 9 7 7 8 7 7 6 8 10 9 5 6 6 7 6 5 3 3 5 9 11 9 8
20 20 19 19 18 17 17 15 17 17 16 16 15 15 15 13 12 12 11 8 6 8 7 7 7 7 5 10 10 9 6 5 5 7 7 6 5 2 4 6 5 4 4
22 22 21 20 18 19 18 17 17 17 17 17 17 16 16 14 14 13 11 7 7 5 6 6 7 7 6 9 10 9 5 5 5 4 6 6 6 5 6 6 5 4 3
20 17 18 17 18 19 19 19 18 18 18 18 17 16 16 16 15 13 11 5 5 5 6 6 8 9 7 9 9 7 4 5 4 4 5 8 7 7 8 6 5 4 1
16 15 19 21 21 20 20 19 19 20 17 16 16 15 15 15 14 12 8 9 7 7 6 8 6 7 8 8 11 10 5 5 5 5 4 4 10 10 9 7 4 3 4
15 19 18 17 19 20 20 19 20 16 16 16 16 16 15 12 11 14 10 10 10 9 8 7 5 5 6 10 12 12 7 7 6 6 4 5 10 10 9 6 5 3 2
19 18 18 17 17 19 19 19 16 17 17 16 16 15 15 13 13 13 12 9 11 9 9 8 7 5 4 4 11 12 10 7 4 4 7 10 12 11 7 7 6 2 1
14 15 16 18 18 19 19 16 17 18 18 17 15 14 14 13 13 10 11 10 10 10 9 9 7 5 5 5 4 5 5 6 5 6 5 5 6 5 4 2 4 3 2
10 15 17 17 18 17 16 15 17 18 16 15 13 14 12 13 12 11 11 11 11 12 11 10 9 9 8 9 11 11 7 5 5 5 3 2 3 3 3 2 4 3 2
7 10 11 12 13 15 15 15 17 19 17 14 12 11 10 10 10 10 4 6 9 14 13 12 10 6 7 16 17 16 14 14 12 3 4 3 4 4 4 4 4 2 3
Wind_Direction
144 138 131 128 131 140 129 135 136 139 126 122 120 92 78 74 54 42 6 46 43 80 74 70 69 50 83 84 83 95 76 38 78 109 72 58 55 55 62 51 66 71 93
153 147 148 154 149 143 129 131 135 142 125 101 92 112 133 55 90 85 50 42 40 49 86 64 50 52 83 82 76 60 97 76 351 120 98 99 29 36 42 31 38 50 61
163 167 166 158 150 141 147 155 160 143 138 123 110 92 82 76 94 47 33 36 29 43 69 66 62 32 45 77 73 70 61 109 26 57 128 112 134 152 257 33 36 36 54
176 169 163 166 167 166 152 162 165 142 147 134 129 141 142 146 134 107 104 82 32 64 81 80 80 86 53 59 63 52 90 112 114 66 41 54 109 153 157 356 45 37 74
179 180 173 172 168 164 173 169 162 157 163 141 140 138 118 104 113 94 88 66 69 71 70 75 79 70 71 63 64 63 56 33 76 63 124 55 64 48 110 99 340 58 47
191 176 173 165 168 173 177 170 166 175 173 150 141 137 135 138 124 126 118 129 90 63 73 84 79 75 78 79 74 73 69 64 69 70 61 80 100 9 73 86 296 119 47
188 175 175 172 171 180 177 173 170 177 175 151 142 144 142 140 150 156 153 136 116 82 92 92 92 89 87 84 79 74 71 62 74 78 78 71 74 96 99 98 56 52 236
185 179 176 175 177 177 175 174 173 171 161 155 149 143 144 152 154 156 147 140 121 130 137 109 99 100 94 82 85 84 79 76 77 80 73 79 67 70 73 116 114 46 341
181 179 177 178 177 176 178 171 173 169 159 156 147 154 156 154 155 152 142 144 141 136 131 117 109 101 95 104 98 88 86 82 80 83 79 81 67 57 60 65 83 135 83
180 180 176 178 179 179 172 169 172 168 158 155 158 163 160 155 149 147 154 155 150 128 130 119 114 110 109 104 98 94 92 93 82 78 79 73 61 59 49 63 63 59 129
180 179 179 179 177 172 172 168 170 160 159 162 157 153 163 162 151 152 157 158 140 142 136 134 128 127 121 113 103 100 102 100 95 82 88 75 69 63 59 60 59 57 66
179 178 176 172 167 168 173 172 168 161 163 162 157 162 162 153 151 153 156 154 149 150 148 141 132 130 126 122 116 114 117 109 104 102 89 86 82 69 65 59 60 58 60
174 171 167 172 169 171 172 174 166 163 161 159 159 156 156 154 157 154 154 158 152 153 146 137 138 134 133 127 127 127 122 123 124 123 114 109 99 73 63 67 66 53 49
170 173 171 174 172 172 173 168 166 162 160 160 160 157 159 158 156 156 157 156 157 150 148 151 145 141 142 141 137 134 133 129 127 130 121 118 101 101 82 69 63 67 55
170 175 171 172 173 171 170 166 163 162 161 160 159 162 154 149 150 156 158 153 152 158 154 149 151 154 153 159 144 140 149 137 123 127 121 113 117 105 64 83 342 352 94
177 178 176 171 172 172 171 165 163 164 161 162 161 155 153 152 158 160 157 157 158 159 153 159 157 161 156 158 145 146 144 137 129 115 109 112 105 73 53 55 67 123 117
175 175 178 177 175 175 170 167 164 156 160 161 159 160 159 158 161 163 158 164 169 156 165 165 158 163 159 158 140 136 140 140 136 130 141 129 109 86 77 81 71 71 73
175 181 177 178 176 167 167 150 156 160 160 164 164 163 162 161 162 164 167 165 162 169 168 170 164 156 181 167 149 140 139 145 157 155 162 140 146 114 99 115 83 70 68
179 182 180 174 163 166 160 152 159 162 164 169 168 168 165 163 166 170 168 167 157 165 169 172 162 167 182 173 158 144 152 154 175 164 144 139 142 155 131 121 103 76 37
178 174 171 162 161 165 161 158 164 167 175 172 170 168 168 168 173 169 167 149 159 168 167 167 175 177 176 180 171 156 158 164 135 101 119 143 145 143 138 127 129 106 247
178 160 160 169 169 162 164 168 169 181 171 164 165 166 170 171 171 160 159 161 165 159 170 173 172 178 175 183 183 174 166 173 153 155 155 159 155 156 153 148 149 163 182
160 160 162 165 167 166 166 171 182 167 162 162 165 168 169 169 163 162 164 167 169 172 176 167 173 191 178 180 191 184 174 175 156 172 166 166 174 169 170 171 190 42 53
165 164 163 159 165 171 172 172 172 162 161 162 166 168 167 168 165 167 166 168 177 182 188 186 187 192 180 182 188 182 170 152 134 148 165 171 187 187 188 201 201 155 88
162 161 154 162 168 175 177 170 161 162 162 166 165 165 167 167 168 171 173 177 185 188 190 191 191 183 172 182 176 179 170 139 128 140 159 175 179 181 173 171 160 175 194
157 157 162 169 173 170 169 161 161 163 166 167 165 168 171 170 170 178 180 186 194 190 190 198 187 179 195 201 178 173 179 175 163 133 131 162 181 198 195 177 180 189 201
151 156 160 163 161 165 162 160 163 167 165 166 167 170 169 175 172 169 140 20 184 184 186 166 175 205 169 157 173 181 173 163 150 142 185 188 189 191 190 185 187 198 183